Satellite: ISS
Catalog number: 25544
Epoch time:      09001.56670644
Element set:     977
Inclination:      051.6417 deg
RA of node:       079.8207 deg
Eccentricity:    0.0007278
Arg of perigee:   149.6545 deg
Mean anomaly:     350.5494 deg
Mean motion:   15.71913206 rev/day
Decay rate:      9.827e-05 rev/day^2
Epoch rev:           57974
Checksum:              337

Satellite: CO-58
Catalog number: 28895
Epoch time:      09001.15554102
Element set:     200
Inclination:      098.0800 deg
RA of node:       256.2499 deg
Eccentricity:    0.0018441
Arg of perigee:   147.6495 deg
Mean anomaly:     212.5905 deg
Mean motion:   14.59730023 rev/day
Decay rate:       2.84e-06 rev/day^2
Epoch rev:           16936
Checksum:              303

Satellite: FALCON
Catalog number: 30776
Epoch time:      08366.52397626
Element set:     472
Inclination:      035.4335 deg
RA of node:       036.5676 deg
Eccentricity:    0.0001644
Arg of perigee:   289.6160 deg
Mean anomaly:     070.4379 deg
Mean motion:   15.03136753 rev/day
Decay rate:       2.70e-06 rev/day^2
Epoch rev:            9985
Checksum:              315

Satellite: MAST
Catalog number: 31126
Epoch time:      09001.16429139
Element set:     493
Inclination:      098.0155 deg
RA of node:       063.4170 deg
Eccentricity:    0.0095879
Arg of perigee:   078.4267 deg
Mean anomaly:     282.7686 deg
Mean motion:   14.53468703 rev/day
Decay rate:        4.2e-07 rev/day^2
Epoch rev:            9077
Checksum:              314

Satellite: CAPE1
Catalog number: 31130
Epoch time:      09001.45089885
Element set:     492
Inclination:      098.0169 deg
RA of node:       062.2485 deg
Eccentricity:    0.0104049
Arg of perigee:   081.7312 deg
Mean anomaly:     279.5669 deg
Mean motion:   14.52022101 rev/day
Decay rate:       1.09e-06 rev/day^2
Epoch rev:            9049
Checksum:              284

Satellite: COMPASS
Catalog number: 32787
Epoch time:      09001.21751844
Element set:     241
Inclination:      097.9665 deg
RA of node:       066.2755 deg
Eccentricity:    0.0015226
Arg of perigee:   211.4335 deg
Mean anomaly:     148.5970 deg
Mean motion:   14.81525312 rev/day
Decay rate:       4.15e-06 rev/day^2
Epoch rev:            3672
Checksum:              287

Satellite: AAUSAT2
Catalog number: 32788
Epoch time:      09001.46908595
Element set:     242
Inclination:      097.9666 deg
RA of node:       066.5581 deg
Eccentricity:    0.0014848
Arg of perigee:   211.3058 deg
Mean anomaly:     148.7274 deg
Mean motion:   14.81641011 rev/day
Decay rate:       3.34e-06 rev/day^2
Epoch rev:            3676
Checksum:              314

Satellite: DO-64
Catalog number: 32789
Epoch time:      09001.82388933
Element set:     254
Inclination:      097.9702 deg
RA of node:       066.9837 deg
Eccentricity:    0.0015324
Arg of perigee:   208.5927 deg
Mean anomaly:     151.4441 deg
Mean motion:   14.81576626 rev/day
Decay rate:       4.15e-06 rev/day^2
Epoch rev:            3681
Checksum:              329

Satellite: CO-66
Catalog number: 32791
Epoch time:      09001.37702890
Element set:     235
Inclination:      097.9691 deg
RA of node:       066.4610 deg
Eccentricity:    0.0015467
Arg of perigee:   208.9617 deg
Mean anomaly:     151.0742 deg
Mean motion:   14.81367676 rev/day
Decay rate:       1.23e-06 rev/day^2
Epoch rev:            3671
Checksum:              312

Satellite: RS-30
Catalog number: 32953
Epoch time:      09001.49553471
Element set:     197
Inclination:      082.5010 deg
RA of node:       000.2664 deg
Eccentricity:    0.0018979
Arg of perigee:   178.4187 deg
Mean anomaly:     181.6977 deg
Mean motion:   12.42999297 rev/day
Decay rate:        1.0e-07 rev/day^2
Epoch rev:            2768
Checksum:              322

/EX



_______________________________________________
Via the Keps mailing list courtesy of AMSAT-NA
http://amsat.org/mailman/listinfo/keps

--- ViaMAIL!/WC v1.60d
 * Origin: Chowdanet (401-724-4410) telnet://chowdanet.com  (1:323/120)